Wind_Speed
10 9 7 4 5 5 5 4 4 5 18 15 17 25 29 22 12 9 19 22 23 16 18 13 8 13 17 22 21 18 17 5 8 15 9 11 13 10 9 4 3 5 2 7
8 7 7 5 4 7 9 6 7 7 7 9 21 28 27 25 11 10 11 14 16 21 20 10 12 12 13 20 20 15 16 7 8 4 6 12 15 15 15 15 11 10 4 4
8 7 8 5 3 8 11 10 6 7 9 21 22 19 18 14 9 9 10 14 16 16 10 9 12 16 13 14 13 10 13 9 7 6 6 6 6 11 11 14 9 14 25 26
9 6 8 3 3 8 11 11 8 10 14 17 14 13 14 11 13 14 14 15 15 11 10 13 16 11 14 11 8 6 6 6 5 7 7 9 11 15 18 23 28 25 36 30
6 3 4 1 3 8 9 13 11 12 13 9 14 13 11 10 12 10 11 13 11 10 13 8 13 10 10 7 7 5 5 3 7 12 11 12 19 26 28 31 34 36 37 41
4 4 1 1 1 6 8 12 15 9 9 6 6 8 7 9 9 10 10 13 11 10 9 8 9 8 7 5 6 7 8 6 4 5 5 9 18 11 12 16 18 23 30 21
6 6 4 5 3 4 8 13 12 14 8 6 8 8 8 11 12 10 11 11 10 9 9 8 7 7 8 10 11 13 10 5 5 8 9 4 3 6 11 15 18 18 23 25
7 8 8 9 8 6 6 9 13 13 14 11 12 12 11 10 9 10 10 9 8 8 8 5 4 3 2 4 7 9 12 15 8 5 7 15 20 19 21 24 23 22 29 27
7 9 10 11 11 11 10 10 10 11 11 16 14 16 14 12 10 8 7 4 4 6 7 8 5 5 5 4 3 5 4 6 13 9 5 5 6 7 12 21 27 2 4 8
9 9 11 13 13 13 13 12 10 9 10 12 15 17 16 13 11 9 10 8 5 7 7 6 6 6 6 4 5 5 6 6 18 20 11 10 14 22 22 10 15 22 26 33
10 10 12 14 15 17 16 16 15 14 13 10 12 15 15 12 12 13 10 10 9 8 5 5 6 6 7 7 8 6 10 7 11 11 7 9 2 7 15 23 29 37 41 41
13 12 12 13 15 17 19 18 17 17 17 12 17 18 19 19 17 15 15 13 10 7 6 6 6 8 9 12 9 13 18 18 7 10 8 11 18 22 32 36 35 38 38 36
15 15 14 15 16 16 19 17 18 20 20 18 20 17 18 21 24 23 21 20 21 19 17 18 20 17 15 11 12 19 19 19 24 23 30 29 27 29 37 41 38 33 32 33
17 16 17 16 18 19 18 18 19 19 19 17 16 11 17 20 22 24 26 24 21 19 18 19 19 19 16 16 20 29 25 25 31 32 32 31 25 24 34 37 40 45 48 50
20 18 18 17 18 19 16 13 11 12 14 11 8 19 25 22 21 19 21 21 21 20 20 22 23 26 22 25 28 31 22 23 22 28 26 30 34 34 38 42 42 42 43 41
22 21 19 19 18 19 18 16 15 14 12 15 15 13 18 19 18 22 23 23 25 24 23 21 24 25 21 16 28 27 21 21 23 31 32 34 35 36 40 42 42 43 44 45
24 20 19 19 19 18 18 17 16 15 17 16 8 9 12 16 19 19 21 22 23 22 21 24 25 24 21 27 34 19 21 21 25 29 31 31 31 33 34 36 39 39 37 35
23 21 19 18 17 17 17 18 16 9 11 12 7 7 10 9 9 12 13 12 12 16 17 23 27 25 26 29 20 21 21 22 23 24 26 29 31 33 35 37 38 36 34 29
22 20 19 18 18 16 14 13 16 16 14 8 10 10 5 9 11 11 12 14 16 21 26 30 24 29 26 25 25 19 18 23 25 25 28 30 32 33 34 35 37 36 33 30
22 20 19 18 16 15 12 13 14 15 20 21 22 16 12 9 8 10 11 11 14 12 15 14 21 33 28 18 17 19 20 21 24 28 30 30 28 30 36 36 37 38 31 29
25 23 20 17 12 12 13 12 10 11 12 15 21 24 27 21 18 15 9 6 6 6 7 9 9 24 23 17 19 22 20 22 25 29 32 33 33 36 32 32 32 26 26 24
25 23 20 17 14 10 9 10 9 9 11 10 10 11 13 15 16 12 8 9 7 8 9 8 14 21 25 22 21 23 23 23 26 29 34 32 25 24 24 22 20 21 22 25
24 22 17 10 12 15 9 12 10 12 10 6 7 7 6 6 9 11 10 7 9 10 9 12 25 24 21 26 23 21 26 30 32 34 36 25 25 24 21 20 20 22 25 27
24 20 15 13 8 9 16 13 12 11 9 7 5 1 3 6 9 11 7 10 9 8 11 30 28 19 15 17 22 30 33 34 33 36 27 26 24 22 21 22 24 27 29 31
23 14 12 18 18 10 7 7 11 5 3 6 8 10 12 12 10 8 9 6 9 8 10 10 16 25 22 26 30 35 39 34 33 31 27 24 23 22 24 26 28 30 33 35
25 19 16 11 16 21 19 11 9 9 8 9 12 17 15 14 10 12 14 12 12 25 27 24 31 38 34 36 42 42 39 32 32 27 24 25 24 25 27 29 31 33 35 38
27 32 28 13 15 16 18 7 7 9 13 16 19 17 13 10 11 15 18 31 32 33 34 35 36 35 37 44 44 42 34 33 29 25 26 25 26 28 30 31 34 36 39 41
Wind_Direction
333 11 324 289 233 177 201 194 55 90 139 133 158 138 149 152 154 108 123 122 132 142 143 148 147 175 183 183 187 189 174 138 156 192 208 203 198 208 227 221 188 233 27 271
335 14 347 284 214 174 180 181 95 96 145 147 154 154 156 161 161 141 132 140 142 140 151 134 152 161 175 182 185 182 171 153 132 175 228 216 218 211 206 225 273 243 205 249
331 5 11 286 202 177 178 182 114 105 164 120 130 141 150 150 142 128 128 129 129 140 133 141 139 134 132 158 175 174 171 165 121 80 135 145 200 225 232 232 243 237 234 255
317 11 31 286 229 181 180 184 144 134 129 128 127 139 130 130 116 117 123 130 133 121 103 126 136 139 145 155 174 186 190 145 212 221 228 242 261 259 258 254 260 247 271 262
293 354 35 0 244 183 183 188 159 135 137 119 121 125 118 127 129 125 124 133 131 135 135 144 144 148 154 163 181 205 231 219 271 283 288 272 267 266 262 260 261 256 262 271
248 270 168 58 225 178 184 172 186 174 168 178 140 132 133 144 150 137 145 154 163 165 161 155 171 187 193 200 225 246 257 248 262 266 251 285 288 286 262 260 264 263 260 288
242 238 213 195 174 181 185 171 189 186 195 180 192 181 175 180 187 188 182 183 186 175 177 176 196 228 242 248 246 244 241 236 244 268 276 229 242 242 260 274 284 280 285 287
240 229 230 206 198 204 210 199 189 202 184 192 185 187 189 182 178 176 183 193 207 213 209 203 184 163 232 228 252 253 244 234 224 240 219 280 280 251 254 264 267 270 274 283
234 236 230 227 221 217 220 224 229 213 206 204 199 195 196 193 189 191 198 216 195 176 197 172 157 177 193 218 206 205 197 207 200 213 237 236 266 254 259 286 303 97 296 295
256 235 234 238 230 225 226 227 233 242 238 223 215 209 203 206 196 200 210 209 212 194 195 187 191 214 197 204 201 213 209 238 230 235 238 264 287 273 285 302 302 290 291 297
262 251 240 235 235 238 232 230 232 239 249 242 225 217 221 219 219 225 217 222 227 232 232 233 222 216 216 238 224 251 239 246 233 232 228 256 70 300 294 301 295 298 302 303
268 259 251 247 242 238 233 236 240 234 233 234 233 227 228 225 223 233 243 239 250 209 229 228 265 239 252 260 262 237 251 237 250 237 246 265 292 298 287 285 291 294 294 294
269 264 256 251 249 244 245 240 239 235 236 236 239 231 229 231 232 235 230 231 239 253 261 261 254 252 264 242 255 270 269 282 263 272 273 274 277 285 279 284 285 283 286 288
268 260 258 254 251 251 252 250 241 246 245 242 229 222 227 235 235 232 241 247 247 250 255 251 250 261 267 264 274 282 275 279 284 275 282 289 289 273 274 280 283 287 287 290
266 261 255 252 252 252 250 244 234 240 237 240 247 225 235 233 228 231 233 242 243 238 243 250 259 261 268 282 283 290 307 312 302 298 298 286 289 287 283 282 285 287 291 293
263 264 259 253 245 245 246 240 236 233 243 253 258 252 232 234 234 232 238 243 247 247 256 258 260 267 280 274 282 320 329 319 301 290 287 289 291 291 289 292 293 293 294 294
258 257 256 250 248 239 234 235 238 233 229 236 263 251 249 237 243 232 234 238 243 251 252 262 269 276 277 272 282 331 297 285 282 284 287 289 288 290 291 291 293 297 302 296
245 246 244 242 239 236 231 233 233 224 206 220 234 237 211 193 213 221 229 228 229 235 244 265 269 274 271 273 326 309 308 296 291 298 302 301 301 301 300 302 304 305 307 306
232 227 227 230 230 228 232 232 229 231 206 213 221 217 225 226 227 234 234 242 245 257 262 262 260 256 250 311 313 307 305 298 305 306 306 306 302 301 302 305 306 306 306 304
219 214 217 224 224 229 226 228 234 236 234 238 243 245 231 233 218 219 236 244 239 249 256 256 243 257 298 316 300 314 312 304 302 307 310 311 305 305 307 301 297 296 297 303
212 211 211 220 223 228 232 229 215 215 227 244 250 250 249 243 244 248 256 246 256 255 256 248 256 281 318 309 315 316 310 309 303 305 313 312 300 299 296 291 288 292 296 296
210 210 211 220 222 217 216 208 206 209 218 222 228 230 236 232 233 236 247 253 257 259 258 250 273 300 304 310 313 315 310 309 302 300 311 308 299 297 297 298 296 293 295 298
209 211 209 206 217 216 208 201 195 200 192 175 170 168 185 212 230 233 239 239 243 262 248 264 284 305 308 309 311 320 318 315 304 306 315 309 307 308 309 305 299 299 297 298
205 206 201 198 200 210 213 212 199 173 180 200 188 253 254 252 241 229 233 235 249 243 249 275 303 307 303 304 311 317 320 313 308 313 310 309 309 309 308 306 303 301 301 304
210 195 205 219 208 193 133 185 170 170 247 272 290 285 280 267 243 236 226 234 226 218 253 291 303 313 299 308 313 318 317 311 308 310 308 308 309 309 306 302 302 302 303 305
207 207 215 198 193 204 216 208 196 218 232 274 273 267 264 255 232 221 218 227 246 266 279 287 303 307 298 304 307 306 310 305 307 304 303 308 308 308 306 303 301 301 303 304
224 232 216 170 175 181 175 197 295 261 265 275 267 255 249 234 234 221 235 255 284 284 282 285 292 294 299 301 303 305 301 300 298 295 303 303 304 307 304 299 298 299 301 304
Height
3034 3035 3032 3030 3030 3029 3031 3031 3030 3029 3028 3029 3029 3030 3034 3037 3040 3041 3043 3046 3052 3055 3059 3064 3066 3067 3069 3074 3079 3082 3085 3088 3090 3093 3093 3094 3095 3097 3099 3099 3099 3099 3098 3094
3032 3033 3032 3030 3029 3029 3031 3032 3032 3032 3031 3030 3030 3032 3034 3037 3041 3043 3045 3048 3051 3055 3057 3062 3064 3066 3068 3072 3075 3080 3084 3086 3089 3092 3094 3092 3093 3095 3095 3096 3096 3097 3099 3092
3031 3031 3032 3029 3029 3029 3032 3034 3035 3035 3034 3033 3035 3037 3040 3042 3044 3046 3047 3050 3053 3055 3057 3059 3062 3066 3070 3073 3077 3080 3083 3084 3085 3088 3087 3089 3090 3091 3092 3094 3094 3092 3090 3088
3029 3030 3031 3029 3028 3030 3032 3034 3036 3037 3039 3040 3041 3041 3043 3045 3046 3048 3050 3052 3053 3056 3059 3062 3064 3068 3070 3074 3077 3080 3082 3083 3084 3085 3086 3087 3088 3088 3089 3088 3086 3087 3082 3084
3029 3028 3030 3029 3030 3030 3032 3035 3037 3039 3041 3043 3043 3045 3046 3047 3048 3050 3051 3054 3056 3058 3060 3063 3066 3069 3072 3075 3077 3079 3080 3082 3082 3083 3084 3084 3083 3081 3080 3080 3078 3078 3078 3075
3028 3027 3028 3029 3029 3031 3032 3034 3037 3041 3042 3045 3047 3047 3048 3049 3050 3052 3054 3055 3057 3059 3063 3065 3067 3069 3071 3074 3075 3076 3079 3080 3081 3080 3081 3080 3077 3071 3070 3070 3070 3071 3070 3071
3026 3025 3026 3028 3029 3031 3033 3034 3037 3039 3042 3045 3046 3048 3048 3049 3050 3052 3053 3055 3057 3061 3062 3065 3067 3069 3071 3072 3073 3074 3076 3078 3079 3077 3078 3078 3069 3067 3067 3066 3066 3067 3066 3067
3024 3024 3024 3026 3027 3029 3032 3033 3035 3036 3038 3042 3044 3046 3047 3049 3050 3053 3054 3056 3058 3060 3063 3065 3066 3068 3069 3069 3070 3071 3072 3074 3077 3076 3075 3069 3064 3063 3063 3062 3063 3064 3062 3061
3020 3021 3022 3023 3025 3027 3029 3032 3034 3036 3038 3038 3041 3043 3045 3047 3049 3051 3053 3056 3058 3060 3062 3063 3064 3066 3067 3068 3068 3068 3070 3071 3073 3072 3072 3068 3060 3060 3060 3059 3056 3055 3056 3056
3016 3017 3018 3020 3022 3024 3026 3028 3030 3033 3036 3038 3040 3042 3044 3046 3048 3050 3052 3053 3055 3057 3058 3061 3062 3064 3065 3065 3065 3065 3067 3067 3066 3065 3065 3061 3058 3057 3056 3059 3058 3052 3051 3049
3011 3013 3014 3015 3018 3019 3022 3024 3027 3030 3031 3034 3036 3040 3042 3044 3045 3048 3050 3052 3052 3054 3055 3057 3059 3060 3060 3061 3062 3063 3064 3063 3060 3061 3063 3058 3055 3056 3058 3056 3050 3045 3040 3038
3006 3008 3010 3011 3013 3015 3017 3019 3022 3025 3028 3031 3032 3035 3037 3040 3043 3045 3045 3048 3049 3051 3053 3054 3055 3055 3056 3058 3059 3059 3058 3056 3057 3057 3053 3052 3052 3053 3049 3043 3039 3036 3033 3031
3003 3003 3005 3007 3008 3010 3012 3015 3018 3020 3022 3026 3027 3029 3031 3033 3036 3038 3042 3042 3044 3046 3049 3050 3051 3052 3052 3053 3053 3050 3049 3050 3048 3049 3045 3046 3045 3044 3035 3031 3029 3027 3024 3023
2999 3000 3000 3002 3004 3005 3007 3010 3012 3015 3018 3020 3022 3022 3025 3027 3030 3034 3035 3037 3039 3042 3044 3044 3045 3046 3046 3046 3046 3041 3043 3042 3039 3037 3036 3035 3034 3030 3023 3020 3018 3016 3014 3012
2993 2995 2997 2998 2999 3001 3003 3005 3007 3009 3015 3013 3015 3016 3018 3022 3024 3027 3029 3031 3034 3036 3037 3038 3039 3038 3040 3039 3036 3028 3033 3032 3030 3025 3027 3024 3021 3019 3014 3012 3009 3004 3002 3001
2988 2989 2991 2993 2995 2997 2999 3001 3003 3005 3007 3010 3011 3012 3014 3015 3016 3019 3022 3024 3025 3028 3030 3031 3031 3032 3036 3033 3026 3023 3023 3023 3022 3019 3018 3016 3013 3010 3005 3003 3000 2995 2992 2988
2983 2984 2986 2988 2990 2992 2996 2998 2999 3000 3004 3006 3007 3005 3005 3008 3010 3013 3014 3017 3018 3021 3023 3023 3024 3026 3029 3024 3018 3023 3021 3018 3015 3013 3009 3007 3005 3002 2999 2996 2991 2987 2983 2978
2979 2980 2981 2983 2985 2988 2991 2992 2996 2997 3000 3003 3004 3002 3004 3005 3006 3008 3009 3010 3012 3014 3016 3016 3016 3019 3019 3013 3015 3013 3011 3009 3007 3005 3002 2998 2994 2992 2988 2985 2981 2977 2973 2970
2974 2976 2977 2979 2982 2985 2988 2990 2993 2995 3001 2999 2998 2999 3001 3001 3002 3004 3006 3007 3008 3008 3008 3009 3011 3007 3005 3007 3006 3005 3003 2999 2997 2996 2994 2991 2988 2984 2980 2975 2971 2968 2965 2964
2968 2972 2974 2976 2979 2982 2986 2988 2990 2991 2992 2993 2992 2995 2998 3001 3001 3002 3005 3003 3004 2999 3001 3001 2997 2991 2999 2999 2998 2997 2996 2994 2992 2989 2986 2983 2979 2975 2972 2968 2965 2963 2961 2959
2963 2966 2970 2973 2976 2979 2981 2983 2983 2984 2985 2985 2986 2988 2989 2993 2996 2998 2999 2996 2995 2993 2994 2996 2987 2982 2991 2991 2991 2991 2990 2989 2986 2983 2979 2975 2971 2969 2965 2963 2959 2957 2955 2953
2959 2963 2966 2970 2973 2975 2977 2975 2976 2977 2979 2979 2979 2982 2984 2987 2991 2993 2994 2993 2991 2988 2989 2988 2978 2984 2983 2985 2985 2985 2984 2982 2980 2977 2974 2969 2964 2960 2957 2954 2951 2950 2949 2947
2955 2959 2963 2966 2968 2967 2967 2968 2968 2970 2971 2974 2977 2980 2983 2986 2989 2989 2991 2989 2988 2986 2983 2978 2977 2977 2978 2979 2978 2978 2976 2974 2971 2967 2963 2959 2955 2952 2949 2946 2945 2943 2942 2940
2951 2954 2957 2958 2958 2958 2960 2965 2966 2968 2970 2973 2976 2978 2982 2984 2985 2985 2985 2985 2984 2979 2976 2974 2973 2973 2973 2973 2972 2970 2968 2965 2962 2959 2955 2952 2948 2946 2943 2940 2938 2936 2935 2932
2945 2949 2948 2947 2951 2956 2958 2961 2965 2967 2969 2972 2974 2976 2979 2980 2981 2981 2980 2978 2973 2969 2968 2969 2969 2969 2968 2966 2963 2961 2958 2956 2953 2951 2947 2945 2942 2940 2937 2934 2931 2928 2926 2923
2939 2939 2939 2942 2945 2951 2956 2960 2962 2965 2967 2970 2973 2974 2973 2973 2972 2970 2969 2967 2964 2965 2966 2965 2964 2963 2960 2958 2956 2954 2950 2947 2944 2942 2941 2938 2935 2933 2931 2928 2925 2921 2918 2915
2929 2928 2934 2940 2943 2946 2951 2955 2959 2961 2964 2967 2968 2967 2968 2964 2961 2959 2960 2959 2961 2962 2961 2959 2957 2955 2952 2950 2947 2945 2942 2939 2937 2936 2934 2932 2929 2926 2924 2921 2918 2914 2910 2905